Location: Washington
(38.8950°N, 77.0370°W)
Time: 05:21:42
(UTC-04:00)

Amateur Radio Satellites - All Passes

Search period start: 26 March 2017 04:51
Search period end: 27 March 2017 04:51
Location: Washington, 38.8950°N, 77.0370°W

Satellite Date Start Highest point End Downlink Frequencies (MHz)
Time Altitude Azimuth
O/OREOS (USA 219) 26 Mar 04:58:19 05:00:28 13° 262° (W) 05:02:36 437.305
CUBESAT XI-V 26 Mar 04:59:26 05:03:59 73° 76° (ENE) 05:08:35 437.345
M-CUBED/EXP-1 PRIME 26 Mar 05:11:40 05:12:26 10° 57° (ENE) 05:13:13 437.505
KKS-1 26 Mar 05:32:21 05:36:23 34° 262° (W) 05:40:29 437.445
DOVE 4 26 Mar 05:51:37 05:54:16 14° 89° (E) 05:56:54 437.250
AO-7 26 Mar 05:54:39 06:02:27 47° 296° (WNW) 06:10:14 .
ITAMSAT 1 26 Mar 06:08:26 06:10:55 14° 299° (WNW) 06:13:26 435.822/435.867
STARS 26 Mar 06:10:26 06:14:18 30° 263° (W) 06:18:12 437.465
CUTE-I 26 Mar 06:13:54 06:16:40 14° 91° (E) 06:19:25 437.470
AO-85 26 Mar 06:17:15 06:21:05 52° 56° (NE) 06:25:03 145.980
NO-84 26 Mar 06:21:19 06:22:23 12° 125° (SE) 06:23:27 435.350 FM
M-CUBED/EXP-1 PRIME 26 Mar 06:42:42 06:46:15 59° 254° (WSW) 06:50:09 437.505
XW-2F 26 Mar 06:42:56 06:46:03 25° 96° (E) 06:49:09 145.980 - 146.000
LilacSat-2 26 Mar 06:43:10 06:46:25 27° 96° (E) 06:49:40 437.200
XW-2D 26 Mar 07:08:03 07:11:46 58° 100° (E) 07:15:27 145.860 - 145.880
NUDT-PHONESAT 26 Mar 07:09:43 07:13:16 45° 99° (E) 07:16:47 437.300
XW-2B 26 Mar 07:13:58 07:17:42 68° 101° (E) 07:21:25 145.730 - 145.750
YUBILEINY 26 Mar 07:14:13 07:21:27 30° 84° (E) 07:28:39 435.215
STRAND 1 26 Mar 07:14:31 07:19:24 45° 71° (ENE) 07:24:18 437.568
KAITUO 1B 26 Mar 07:16:13 07:19:51 57° 100° (E) 07:23:29 145.475/437.950
BEESAT 3 26 Mar 07:21:23 07:24:49 26° 51° (NE) 07:28:12 437.485
XW-2C 26 Mar 07:24:07 07:27:52 86° 283° (WNW) 07:31:37 145.795 - 145.815
DOVE 4 26 Mar 07:27:07 07:32:24 69° 285° (WNW) 07:37:35 437.250
XW-2A 26 Mar 07:32:01 07:33:14 12° 92° (E) 07:34:27 145.665 - 145.685
CUTE 1.7 + AOD 2 26 Mar 07:32:19 07:33:53 12° 91° (E) 07:35:27 437.475
BEESAT 2 26 Mar 07:36:17 07:38:57 17° 46° (NE) 07:41:36 435.950
CUTE-I 26 Mar 07:51:51 07:57:10 67° 286° (WNW) 08:02:26 437.470
NO-84 26 Mar 07:56:53 07:59:36 39° 320° (NW) 08:02:19 435.350 FM
AO-85 26 Mar 07:59:30 08:01:03 12° 250° (WSW) 08:02:36 145.980
XW-2F 26 Mar 08:17:20 08:20:02 19° 291° (WNW) 08:22:44 145.980 - 146.000
LilacSat-2 26 Mar 08:17:54 08:20:29 18° 292° (WNW) 08:23:04 437.200
HO-68 26 Mar 08:27:55 08:34:56 55° 101° (ESE) 08:41:56 435.675
CUBEBUG 2 26 Mar 08:43:33 08:47:35 35° 97° (E) 08:51:30 437.445
NUDT-PHONESAT 26 Mar 08:45:45 08:46:45 11° 294° (WNW) 08:47:45 437.300
AAUSAT CUBESAT 2 26 Mar 08:46:10 08:49:40 26° 96° (E) 08:53:10 437.432
ZACube-1 26 Mar 08:53:59 08:56:27 15° 92° (E) 08:58:54 437.345
STRAND 1 26 Mar 08:55:02 08:58:46 20° 267° (W) 09:02:30 437.568
PCSat 26 Mar 08:56:16 08:59:09 15° 103° (ESE) 09:02:02 145.827
BEESAT 3 26 Mar 08:58:57 09:02:20 26° 247° (WSW) 09:05:41 437.485
SEEDS 26 Mar 08:59:48 09:04:00 84° 100° (E) 09:08:13 437.485
PRISM 26 Mar 09:02:48 09:05:44 19° 67° (ENE) 09:08:41 437.425
XW-2A 26 Mar 09:03:05 09:06:08 32° 287° (WNW) 09:09:09 145.665 - 145.685
CUTE 1.7 + AOD 2 26 Mar 09:05:54 09:10:00 52° 286° (WNW) 09:14:05 437.475
YUBILEINY 26 Mar 09:09:11 09:17:43 55° 282° (WNW) 09:26:15 435.215
BEESAT 2 26 Mar 09:13:04 09:16:59 48° 243° (WSW) 09:20:52 435.950
AO-73 26 Mar 09:21:42 09:25:22 28° 96° (E) 09:28:57 145.935
TIGRISAT 26 Mar 09:32:38 09:36:12 22° 67° (ENE) 09:39:44 435.000
JUGNU 26 Mar 09:39:59 09:41:30 11° 176° (S) 09:43:02 437.505
UNISAT 6 26 Mar 09:42:07 09:46:09 29° 69° (ENE) 09:50:10 437.425
FO-29 26 Mar 09:44:16 09:50:52 31° 65° (ENE) 09:57:07 435.910
UWE-3 26 Mar 09:47:00 09:51:18 70° 285° (WNW) 09:55:28 435.000/436.395/437.385
DELFI C3 26 Mar 10:09:31 10:12:49 25° 96° (E) 10:16:07 145.870
HO-68 26 Mar 10:16:22 10:22:14 28° 299° (WNW) 10:28:05 435.675
CUBEBUG 2 26 Mar 10:20:48 10:23:55 19° 294° (WNW) 10:26:58 437.445
AAUSAT CUBESAT 2 26 Mar 10:21:43 10:25:00 23° 291° (WNW) 10:28:17 437.432
Oscar 11 26 Mar 10:21:58 10:26:14 64° 285° (WNW) 10:30:29 .
ZACube-1 26 Mar 10:28:58 10:32:56 39° 288° (WNW) 10:36:48 437.345
PCSat 26 Mar 10:36:30 10:41:53 69° 299° (WNW) 10:47:19 145.827
PRISM 26 Mar 10:37:12 10:40:47 30° 262° (W) 10:44:26 437.425
POLYITAN 1 26 Mar 10:48:02 10:49:14 11° 63° (ENE) 10:50:25 437.675
QB50P2 26 Mar 10:51:42 10:53:45 13° 64° (ENE) 10:55:48 145.880/145.840
AO-73 26 Mar 10:58:14 11:01:25 21° 292° (WNW) 11:04:35 145.935
DUCHIFAT 1 26 Mar 11:04:16 11:06:28 14° 65° (ENE) 11:08:38 145.980
TIGRISAT 26 Mar 11:08:17 11:12:37 37° 262° (W) 11:16:57 435.000
UNISAT 6 26 Mar 11:18:48 11:22:46 27° 264° (W) 11:26:45 437.425
FO-29 26 Mar 11:27:48 11:35:28 56° 260° (W) 11:42:48 435.910
JUGNU 26 Mar 11:29:05 11:29:33 10° 187° (S) 11:30:02 437.505
AIST 2D 26 Mar 11:39:40 11:43:12 73° 77° (ENE) 11:46:44 435.315
SRMSAT 26 Mar 11:42:47 11:43:50 10° 173° (S) 11:44:53 437.500
DELFI C3 26 Mar 11:44:21 11:47:29 23° 291° (WNW) 11:50:37 145.870
NANOSAT C BR1 26 Mar 11:47:57 11:52:01 46° 73° (ENE) 11:56:07 145.865
LO-87 26 Mar 11:50:12 11:53:42 43° 99° (E) 11:57:11 145.935 - 145.965
EO-79 26 Mar 11:52:11 11:56:23 58° 74° (ENE) 12:00:36 145.935-145.965
VELOX 1 26 Mar 12:16:58 12:18:59 13° 91° (E) 12:21:00 145.980
POLYITAN 1 26 Mar 12:20:10 12:24:26 66° 259° (WSW) 12:28:43 437.675
Oscar 19 26 Mar 12:21:27 12:23:37 13° 61° (ENE) 12:25:47 437.125/150
PCSat 26 Mar 12:24:16 12:26:18 12° 319° (NW) 12:28:20 145.827
QB50P2 26 Mar 12:24:53 12:29:04 53° 260° (W) 12:33:16 145.880/145.840
DUCHIFAT 1 26 Mar 12:37:34 12:41:41 50° 260° (W) 12:45:50 145.980
ESTCUBE 1 26 Mar 12:37:35 12:42:06 78° 102° (ESE) 12:46:37 437.505/2401.250
RS-15 26 Mar 12:38:15 12:49:33 53° 110° (ESE) 13:01:14 29.354- 29.394
50 SAT 26 Mar 12:48:53 12:51:00 15° 94° (E) 12:53:06 437.505
BUGSAT 1 26 Mar 12:54:33 12:58:47 82° 76° (ENE) 13:03:03 437.445
SPROUT 26 Mar 13:01:44 13:05:42 35° 98° (E) 13:09:36 437.525
LO-87 26 Mar 13:25:33 13:26:44 11° 294° (WNW) 13:27:55 145.935 - 145.965
NANOSAT C BR1 26 Mar 13:25:47 13:27:58 14° 268° (W) 13:30:08 145.865
DX 1 26 Mar 13:29:27 13:33:25 32° 98° (E) 13:37:22 434.975-435.025
SRMSAT 26 Mar 13:30:21 13:32:04 11° 184° (S) 13:33:48 437.500
EO-79 26 Mar 13:31:15 13:32:28 11° 269° (W) 13:33:42 145.935-145.965
VELOX 1 26 Mar 13:51:22 13:55:44 54° 287° (WNW) 14:00:04 145.980
Oscar 19 26 Mar 13:57:08 14:02:14 78° 257° (WSW) 14:07:23 437.125/150
ITAMSAT 1 26 Mar 14:07:50 14:10:01 13° 60° (ENE) 14:12:13 435.822/435.867
Gurwin Techsat 1B 26 Mar 14:09:34 14:14:52 78° 75° (ENE) 14:20:12 435.225
UKube-1 26 Mar 14:09:45 14:14:04 66° 101° (ESE) 14:18:22 .
ESTCUBE 1 26 Mar 14:17:45 14:18:14 10° 298° (WNW) 14:18:44 437.505/2401.250
50 SAT 26 Mar 14:21:03 14:24:04 27° 289° (WNW) 14:27:04 437.505
NO-84 26 Mar 14:30:55 14:34:05 57° 42° (NE) 14:37:33 435.350 FM
SPROUT 26 Mar 14:38:19 14:41:19 19° 293° (WNW) 14:44:18 437.525
SO-50 26 Mar 14:48:39 14:52:59 39° 115° (ESE) 14:57:17 436.795
RS-15 26 Mar 14:50:31 15:02:07 51° 313° (NW) 15:14:07 29.354- 29.394
AO-7 26 Mar 14:59:32 15:07:22 47° 64° (ENE) 15:15:11 .
DX 1 26 Mar 15:06:04 15:09:23 21° 293° (WNW) 15:12:42 434.975-435.025
ITAMSAT 1 26 Mar 15:43:31 15:48:45 82° 256° (WSW) 15:54:01 435.822/435.867
BEESAT 26 Mar 15:47:04 15:51:43 52° 100° (E) 15:56:20 436.000
UKube-1 26 Mar 15:48:12 15:49:31 11° 298° (WNW) 15:50:49 .
Gurwin Techsat 1B 26 Mar 15:53:30 15:55:21 12° 270° (W) 15:57:13 435.225
ITUPSAT 1 26 Mar 16:03:08 16:07:55 75° 103° (ESE) 16:12:38 437.325
MOZHAYETS 4 26 Mar 16:05:30 16:09:37 33° 97° (E) 16:13:42
NO-84 26 Mar 16:09:53 16:11:23 12° 235° (SW) 16:12:56 435.350 FM
SO-50 26 Mar 16:29:46 16:33:33 24° 312° (NW) 16:37:19 436.795
AO-7 26 Mar 16:52:37 17:00:11 38° 261° (W) 17:07:47 .
DOVE 4 26 Mar 16:57:08 16:58:35 11° 60° (ENE) 17:00:03 437.250
CUBESAT XI-V 26 Mar 16:57:54 17:01:18 20° 94° (E) 17:04:41 437.345
RS-15 26 Mar 17:09:55 17:18:44 22° 344° (NNW) 17:27:37 29.354- 29.394
KKS-1 26 Mar 17:23:56 17:28:18 48° 100° (E) 17:32:36 437.445
XW-2F 26 Mar 17:24:37 17:25:48 11° 65° (ENE) 17:26:58 145.980 - 146.000
LilacSat-2 26 Mar 17:25:19 17:27:03 13° 66° (ENE) 17:28:46 437.200
BEESAT 26 Mar 17:26:07 17:29:03 16° 296° (WNW) 17:31:58 436.000
YUBILEINY 26 Mar 17:27:11 17:30:43 13° 59° (ENE) 17:34:15 435.215
O/OREOS (USA 219) 26 Mar 17:27:48 17:32:19 84° 109° (ESE) 17:36:53 437.305
CUTE-I 26 Mar 17:33:59 17:38:02 22° 65° (ENE) 17:42:07 437.470
MOZHAYETS 4 26 Mar 17:43:03 17:46:34 22° 292° (WNW) 17:50:04
ITUPSAT 1 26 Mar 17:43:26 17:45:04 12° 299° (WNW) 17:46:42 437.325
PCSat 26 Mar 17:44:26 17:46:37 12° 41° (NE) 17:48:49 145.827
XW-2D 26 Mar 17:48:26 17:51:30 23° 70° (ENE) 17:54:33 145.860 - 145.880
NUDT-PHONESAT 26 Mar 17:48:37 17:51:13 18° 69° (ENE) 17:53:49 437.300
XW-2B 26 Mar 17:54:12 17:57:25 26° 71° (ENE) 18:00:38 145.730 - 145.750
KAITUO 1B 26 Mar 17:55:29 17:58:25 22° 70° (ENE) 18:01:21 145.475/437.950
STARS 26 Mar 18:00:16 18:04:36 52° 100° (E) 18:08:53 437.465
XW-2C 26 Mar 18:04:03 18:07:33 35° 73° (ENE) 18:11:03 145.795 - 145.815
M-CUBED/EXP-1 PRIME 26 Mar 18:24:10 18:25:45 12° 95° (E) 18:27:21 437.505
DOVE 4 26 Mar 18:30:49 18:35:26 80° 258° (WSW) 18:40:25 437.250
CUBESAT XI-V 26 Mar 18:34:28 18:38:46 38° 289° (WNW) 18:43:04 437.345
HO-68 26 Mar 18:55:25 19:01:48 37° 64° (ENE) 19:08:10 435.675
XW-2F 26 Mar 18:55:50 18:59:30 48° 260° (W) 19:03:11 145.980 - 146.000
LilacSat-2 26 Mar 18:57:17 19:00:56 42° 261° (W) 19:04:35 437.200
KKS-1 26 Mar 19:01:44 19:04:26 16° 295° (WNW) 19:07:07 437.445
O/OREOS (USA 219) 26 Mar 19:11:21 19:12:22 11° 308° (NW) 19:13:22 437.305
CUTE-I 26 Mar 19:12:36 19:17:44 46° 261° (W) 19:22:55 437.470
YUBILEINY 26 Mar 19:20:33 19:29:15 71° 81° (E) 19:37:56 435.215
NUDT-PHONESAT 26 Mar 19:21:43 19:24:57 27° 264° (W) 19:28:10 437.300
XW-2D 26 Mar 19:22:40 19:25:37 21° 265° (W) 19:28:34 145.860 - 145.880
PCSat 26 Mar 19:25:33 19:31:00 72° 61° (ENE) 19:36:24 145.827
STRAND 1 26 Mar 19:27:24 19:30:37 17° 92° (E) 19:33:50 437.568
RS-15 26 Mar 19:28:23 19:37:39 23° 21° (NNE) 19:46:43 29.354- 29.394
XW-2B 26 Mar 19:28:51 19:31:35 19° 266° (W) 19:34:20 145.730 - 145.750
KAITUO 1B 26 Mar 19:29:22 19:32:20 22° 265° (W) 19:35:18 145.475/437.950
XW-2A 26 Mar 19:32:31 19:35:55 58° 76° (ENE) 19:39:19 145.665 - 145.685
AAUSAT CUBESAT 2 26 Mar 19:36:02 19:38:27 15° 66° (ENE) 19:40:51 437.432
STARS 26 Mar 19:38:06 19:40:28 14° 296° (WNW) 19:42:51 437.465
XW-2C 26 Mar 19:39:49 19:41:52 14° 267° (W) 19:43:55 145.795 - 145.815
CUBEBUG 2 26 Mar 19:39:55 19:43:57 28° 69° (ENE) 19:47:58 437.445
ZACube-1 26 Mar 19:49:22 19:51:14 12° 64° (ENE) 19:53:05 437.345
SEEDS 26 Mar 19:49:58 19:53:57 46° 74° (ENE) 19:57:56 437.485
M-CUBED/EXP-1 PRIME 26 Mar 19:55:54 20:00:33 71° 289° (WNW) 20:05:11 437.505
CUTE 1.7 + AOD 2 26 Mar 19:56:42 20:00:55 89° 104° (ESE) 20:05:08 437.475
AO-73 26 Mar 20:15:57 20:19:23 22° 68° (ENE) 20:22:47 145.935
AO-85 26 Mar 20:30:56 20:34:31 24° 113° (ESE) 20:37:55 145.980
UWE-3 26 Mar 20:41:42 20:46:23 78° 75° (ENE) 20:51:00 435.000/436.395/437.385
HO-68 26 Mar 20:42:42 20:49:22 42° 261° (W) 20:56:04 435.675
DELFI C3 26 Mar 20:55:20 20:57:02 13° 65° (ENE) 20:58:44 145.870
STRAND 1 26 Mar 21:05:08 21:10:05 53° 288° (WNW) 21:15:02 437.568
AAUSAT CUBESAT 2 26 Mar 21:09:42 21:13:34 40° 262° (W) 21:17:27 437.432
PCSat 26 Mar 21:10:57 21:13:43 14° 257° (WSW) 21:16:28 145.827
Oscar 11 26 Mar 21:14:57 21:19:16 81° 77° (ENE) 21:23:36 .
Tancredo 1 26 Mar 21:15:58 21:19:06 76° 321° (NW) 21:22:17 437.200
CUBEBUG 2 26 Mar 21:16:21 21:20:27 28° 265° (W) 21:24:33 437.445
ISS 26 Mar 21:16:21 21:19:36 87° 316° (NW) 21:22:52 437.550
YUBILEINY 26 Mar 21:18:53 21:25:08 23° 279° (W) 21:31:24 435.215
ZACube-1 26 Mar 21:22:26 21:26:58 64° 260° (W) 21:31:27 437.345
SEEDS 26 Mar 21:27:58 21:29:53 13° 269° (W) 21:31:47 437.485
RS-15 26 Mar 21:41:33 21:53:42 58° 51° (NE) 22:05:15 29.354- 29.394
AO-73 26 Mar 21:51:16 21:55:23 34° 263° (W) 21:59:29 145.935
AO-85 26 Mar 22:10:48 22:14:45 32° 307° (NW) 22:18:31 145.980
PRISM 26 Mar 22:19:11 22:23:03 36° 98° (E) 22:26:53 437.425
LO-87 26 Mar 22:26:15 22:28:23 15° 68° (ENE) 22:30:33 145.935 - 145.965
DELFI C3 26 Mar 22:27:39 22:31:24 45° 261° (W) 22:35:11 145.870
FO-29 26 Mar 22:41:13 22:45:30 21° 91° (E) 22:49:30 435.910
BEESAT 3 26 Mar 22:46:43 22:50:35 65° 119° (ESE) 22:54:31 437.485
Tancredo 1 26 Mar 22:53:51 22:55:41 14° 340° (NNW) 22:57:33 437.200
ISS 26 Mar 22:54:21 22:56:29 16° 339° (NNW) 22:58:37 437.550
TIGRISAT 26 Mar 23:00:51 23:05:09 49° 100° (E) 23:09:18 435.000
BEESAT 2 26 Mar 23:03:05 23:06:42 36° 115° (ESE) 23:10:22 435.950
UNISAT 6 26 Mar 23:11:01 23:15:25 72° 101° (E) 23:19:43 437.425
VELOX 1 26 Mar 23:14:38 23:15:27 10° 62° (ENE) 23:16:18 145.980
SO-50 26 Mar 23:21:11 23:25:00 26° 49° (NE) 23:28:45 436.795
ESTCUBE 1 26 Mar 23:35:35 23:39:58 60° 74° (ENE) 23:44:23 437.505/2401.250
SPROUT 26 Mar 23:54:05 23:57:32 24° 69° (ENE) 00:00:59 437.525
RS-15 26 Mar 23:54:43 00:05:45 43° 253° (WSW) 00:16:21 29.354- 29.394
PRISM 26 Mar 23:55:14 23:58:03 18° 293° (WNW) 00:00:50 437.425
LO-87 26 Mar 23:58:24 00:01:34 30° 263° (W) 00:04:48 145.935 - 145.965
POLYITAN 1 27 Mar 00:06:55 00:10:10 21° 95° (E) 00:13:23 437.675
QB50P2 27 Mar 00:11:18 00:14:52 26° 96° (E) 00:18:24 145.880/145.840
DUCHIFAT 1 27 Mar 00:23:03 00:26:37 26° 96° (E) 00:30:08 145.980
DX 1 27 Mar 00:23:57 00:27:29 25° 68° (ENE) 00:31:02 434.975-435.025
FO-29 27 Mar 00:25:17 00:30:59 47° 291° (WNW) 00:36:08 435.910
BEESAT 3 27 Mar 00:26:41 00:28:36 13° 316° (NW) 00:30:32 437.485
TIGRISAT 27 Mar 00:38:59 00:41:21 14° 296° (WNW) 00:43:41 435.000
AIST 2D 27 Mar 00:39:07 00:42:35 73° 284° (WNW) 00:46:03 435.315
BUGSAT 1 27 Mar 00:39:28 00:41:18 13° 91° (E) 00:43:07 437.445
BEESAT 2 27 Mar 00:41:35 00:44:34 20° 312° (NW) 00:47:36 435.950
VELOX 1 27 Mar 00:46:53 00:51:16 73° 258° (WSW) 00:55:42 145.980
UNISAT 6 27 Mar 00:50:46 00:51:28 10° 298° (WNW) 00:52:11 437.425
50 SAT 27 Mar 00:52:34 00:56:00 85° 74° (ENE) 00:59:28 437.505
SO-50 27 Mar 01:01:25 01:05:28 33° 246° (WSW) 01:09:30 436.795
UKube-1 27 Mar 01:02:45 01:06:51 46° 72° (ENE) 01:11:00 .
NANOSAT C BR1 27 Mar 01:08:47 01:13:01 78° 284° (WNW) 01:17:12 145.865
EO-79 27 Mar 01:13:36 01:17:48 62° 285° (WNW) 01:21:56 145.935-145.965
ESTCUBE 1 27 Mar 01:15:37 01:17:08 12° 269° (W) 01:18:39 437.505/2401.250
SPROUT 27 Mar 01:29:37 01:33:18 27° 264° (W) 01:37:00 437.525
POLYITAN 1 27 Mar 01:42:16 01:45:56 29° 290° (WNW) 01:49:35 437.675
QB50P2 27 Mar 01:47:07 01:50:32 24° 291° (WNW) 01:53:57 145.880/145.840
DUCHIFAT 1 27 Mar 01:58:47 02:02:09 23° 291° (WNW) 02:05:29 145.980
DX 1 27 Mar 01:59:51 02:03:32 27° 264° (W) 02:07:16 434.975-435.025
O/OREOS (USA 219) 27 Mar 02:01:24 02:03:48 14° 54° (NE) 02:06:10 437.305
Tancredo 1 27 Mar 02:08:13 02:10:12 15° 21° (NNE) 02:12:11 437.200
ISS 27 Mar 02:09:39 02:11:41 15° 20° (NNE) 02:13:44 437.550
Oscar 19 27 Mar 02:10:00 02:14:53 40° 99° (E) 02:19:43 437.125/150
BUGSAT 1 27 Mar 02:12:54 02:16:56 47° 287° (WNW) 02:20:52 437.445
Gurwin Techsat 1B 27 Mar 02:27:22 02:32:10 33° 97° (E) 02:36:56 435.225
UKube-1 27 Mar 02:40:49 02:43:06 14° 268° (W) 02:45:25 .
BEESAT 27 Mar 02:52:00 02:56:37 52° 73° (ENE) 03:01:16 436.000
AO-7 27 Mar 03:05:07 03:08:54 14° 89° (E) 03:12:39 .
MOZHAYETS 4 27 Mar 03:06:11 03:10:05 28° 69° (ENE) 03:14:00
ITUPSAT 1 27 Mar 03:08:20 03:13:07 76° 75° (ENE) 03:17:55 437.325
O/OREOS (USA 219) 27 Mar 03:39:05 03:43:39 63° 252° (WSW) 03:48:11 437.305
Tancredo 1 27 Mar 03:43:33 03:46:45 83° 35° (NE) 03:49:57 437.200
ISS 27 Mar 03:45:19 03:48:38 76° 39° (NE) 03:51:55 437.550
Oscar 19 27 Mar 03:49:53 03:53:55 24° 294° (WNW) 03:57:58 437.125/150
ITAMSAT 1 27 Mar 03:57:52 04:02:43 38° 98° (E) 04:07:31 435.822/435.867
CUBESAT XI-V 27 Mar 04:00:33 04:03:32 17° 66° (ENE) 04:06:32 437.345
Gurwin Techsat 1B 27 Mar 04:07:27 04:11:58 29° 293° (WNW) 04:16:29 435.225
KKS-1 27 Mar 04:20:37 04:24:43 38° 71° (ENE) 04:28:52 437.445
BEESAT 27 Mar 04:31:55 04:34:40 15° 268° (W) 04:37:27 436.000
MOZHAYETS 4 27 Mar 04:43:20 04:47:11 26° 265° (W) 04:51:03
